User: anonymous   Login
Location: Unspecified
(0.0000°N, 0.0000°E)
Time: 20:13:23
(UTC+00:00)
Language:

Sapphire - Orbit

View from above orbital plane
View from above orbital plane
View from above satellite
View from above satellite

Ground track
Ground track

The orbit data is extracted from the following two-line orbital elements,

1 26932U 01043D   19340.55350320 -.00000047 +00000-0 +13840-4 0  9992
2 26932 067.0563 286.4373 0008857 271.9953 088.0134 14.30318377949348
Epoch (UTC): 06 December 2019 13:17:02
Eccentricity: 0.0008857
inclination: 67.0563°
perigee height: 784 km
apogee height: 797 km
right ascension of ascending node: 286.4373°
argument of perigee: 271.9953°
revolutions per day: 14.30318377
mean anomaly at epoch: 88.0134°
orbit number at epoch: 94934

The dashed part of the orbit path shows where the satellite is in the earth's shadow,  

DLR